Location: Columbia
(38.9520°N, 92.3340°W)
Time: 19:34:31
(UTC-05:00)

Cosmos 2219 Rocket - Visible Passes

Search period start: 24 April 2018 00:00
Search period end: 04 May 2018 00:00
Orbit: 828 x 846 km, 71.0° (Epoch: 24 April)

Date Brightness Start Highest point End Pass type
(mag) Time Alt. Az. Time Alt. Az. Time Alt. Az.
24 Apr 4.2 05:10:13 10° N 05:15:12 31° ENE 05:20:07 10° ESE visible
24 Apr 5.2 21:45:28 10° W 21:48:55 16° NW 21:52:23 10° NNW visible
25 Apr 4.3 04:53:55 10° N 04:58:47 29° ENE 05:03:36 10° ESE visible
25 Apr 5.2 21:28:49 10° W 21:32:29 17° NW 21:36:11 10° N visible
26 Apr 4.4 04:37:39 10° N 04:42:23 27° ENE 04:47:04 10° ESE visible
26 Apr 5.2 21:12:10 10° W 21:16:04 19° NW 21:19:58 10° N visible
27 Apr 4.5 04:21:22 10° N 04:25:58 25° NE 04:30:31 10° ESE visible
27 Apr 5.1 20:55:34 10° W 20:59:38 20° NW 21:03:44 10° N visible
28 Apr 4.5 04:05:06 10° N 04:09:33 24° NE 04:13:58 10° ESE visible
28 Apr 5.1 20:38:58 10° WSW 20:43:13 21° NW 20:47:28 10° N visible
29 Apr 4.6 03:48:50 10° N 03:53:08 22° NE 03:57:24 10° ESE visible
29 Apr 2.3 05:31:58 10° NNW 05:37:23 52° WSW 05:42:46 10° S visible
29 Apr 5.0 20:22:23 10° WSW 20:26:48 23° NW 20:31:13 10° N visible
30 Apr 4.7 03:32:34 10° N 03:36:42 21° NE 03:40:49 10° ESE visible
30 Apr 2.2 05:15:34 10° NNW 05:21:03 57° WSW 05:26:28 10° S visible
01 May 4.7 03:16:20 10° N 03:20:17 19° NE 03:24:12 10° E visible
01 May 2.1 04:59:10 10° NNW 05:04:41 62° WSW 05:10:10 10° S visible
02 May 4.8 03:00:07 10° N 03:03:51 18° NE 03:07:35 10° E visible
02 May 2.1 04:42:46 10° NNW 04:48:20 68° WSW 04:53:50 10° S visible
03 May 4.8 02:43:54 10° NNE 02:47:25 17° NE 02:50:55 10° E visible
03 May 2.0 04:26:23 10° NNW 04:31:58 73° WSW 04:37:31 10° SSE visible
